User: anonymous   Login
Location: Monteux
(44.0348°N, 4.9972°E)
Time: 00:14:15
(UTC+00:00)
Language:

Cosmos 1666 Rocket - Orbit

View from above orbital plane
View from above orbital plane
View from above satellite
View from above satellite

Ground track
Ground track

The orbit data is extracted from the following two-line orbital elements,

1 15890U 85058B   21060.97570816  .00000085  00000-0  73317-5 0  9990
2 15890  82.5237  73.6716 0022422  78.0605 343.0170 14.83463367904444
Epoch (UTC): 01 March 2021 23:25:01
Eccentricity: 0.0022422
inclination: 82.5237°
perigee height: 603 km
apogee height: 634 km
right ascension of ascending node: 73.6716°
argument of perigee: 78.0605°
revolutions per day: 14.83463367
mean anomaly at epoch: 343.0170°
orbit number at epoch: 90444

The dashed part of the orbit path shows where the satellite is in the earth's shadow,  

DLR